This demonstration page uses our WeatherBlox Daily Observations layout. Learn more.

Left ArrowRight Arrow

Hourly Observations for August 8, 2022

Temp ( °F °C ) Dew Point ( °F °C ) Humidity (%) Winds ( mph kmh ) Pressure ( in mb ) Visibility ( mi km ) Precip ( " mm )
12:15 am 00:15 Clear 63 17.3 61 16.3 94 94 ENE 3 6 30.08 1019 10 16 0.00 0.00
12:35 am 00:35 Clear 63 17.1 61 16.3 95 95 NE 6 9 30.07 1018 10 16 0.00 0.00
12:55 am 00:55 Clear 63 17.2 61 16.1 93 93 NNE 5 7 30.08 1019 10 16 0.00 0.00
1:15 am 01:15 Clear with Nearby Thunderstorms 63 17 61 16 94 94 Calm 30.09 1019 10 16 0.00 0.00
1:35 am 01:35 Clear 62 16.7 60 15.8 94 94 NNE 3 6 30.10 1019 10 16 0.00 0.00
1:55 am 01:55 Partly Cloudy 62 16.6 60 15.8 95 95 N 5 7 30.11 1019 10 16 0.00 0.00
2:15 am 02:15 Partly Cloudy 62 16.5 60 15.8 96 96 N 5 7 30.11 1020 10 16 0.00 0.00
2:35 am 02:35 Partly Cloudy with Nearby Thunderstorms 62 16.5 60 15.7 95 95 N 3 6 30.12 1020 10 16 0.00 0.00
2:55 am 02:55 Mostly Cloudy with Nearby Thunderstorms 62 16.6 60 15.7 94 94 NNW 3 6 30.13 1020 10 16 0.00 0.00
3:15 am 03:15 Mostly Cloudy with Nearby Thunderstorms 62 16.5 60 15.6 94 94 NNW 3 6 30.13 1020 10 16 0.00 0.00
3:35 am 03:35 Cloudy 62 16.5 60 15.4 93 93 N 9 15 30.12 1020 10 16 0.00 0.00
3:55 am 03:55 Cloudy 61 16.2 59 15.2 94 94 NNW 6 9 30.12 1020 10 16 0.00 0.00
4:15 am 04:15 Mostly Cloudy 61 16 59 15 94 94 NNW 6 9 30.12 1020 10 16 0.00 0.00
4:35 am 04:35 Partly Cloudy 60 15.7 59 14.9 95 95 N 6 9 30.12 1020 10 16 0.00 0.00
4:55 am 04:55 Clear 60 15.5 59 14.8 96 96 N 7 11 30.11 1020 10 16 0.00 0.00
5:15 am 05:15 Clear 60 15.6 58 14.7 94 94 N 9 15 30.10 1019 10 16 0.00 0.00
5:35 am 05:35 Clear 60 15.5 58 14.5 94 94 N 14 22 30.08 1019 10 16 0.01 0.25
5:55 am 05:55 Clear 59 15.1 57 14.1 94 94 N 14 22 30.08 1019 10 16 0.01 0.25
6:15 am 06:15 Clear 59 14.9 57 13.7 93 93 N 12 19 30.09 1019 10 16 0.00 0.00
6:35 am 06:35 Clear 58 14.5 56 13.5 94 94 N 10 17 30.08 1019 10 16 0.00 0.00
6:55 am 06:55 Sunny 58 14.2 56 13.3 94 94 N 7 11 30.10 1019 10 16 0.00 0.00
7:15 am 07:15 Sunny 57 14 55 13 94 94 N 8 13 30.10 1019 10 16 0.00 0.00
7:35 am 07:35 Sunny 58 14.2 55 13 93 93 N 7 11 30.11 1020 10 16 0.00 0.00
7:55 am 07:55 Sunny 59 15 56 13.4 90 90 N 8 13 30.11 1020 10 16 0.00 0.00
8:15 am 08:15 Sunny 60 15.7 56 13.6 87 87 N 8 13 30.11 1020 10 16 0.00 0.00
8:35 am 08:35 Sunny 61 16.3 56 13.4 83 83 N 8 13 30.12 1020 10 16 0.00 0.00
8:55 am 08:55 Sunny 61 16.3 55 12.9 80 80 NNE 7 11 30.14 1021 10 16 0.00 0.00
9:15 am 09:15 Sunny 61 16.2 56 13.1 82 82 NNE 6 9 30.14 1021 10 16 0.00 0.00
9:35 am 09:35 Sunny 62 16.6 56 13.5 82 82 NNE 5 7 30.14 1020 10 16 0.00 0.00
9:55 am 09:55 Sunny 62 16.9 56 13.5 81 81 NNE 7 11 30.13 1020 10 16 0.00 0.00
10:15 am 10:15 Sunny 63 17 56 13.4 79 79 NE 6 9 30.14 1021 10 16 0.00 0.00
10:35 am 10:35 Sunny 63 17.4 57 13.7 79 79 NE 8 13 30.14 1021 10 16 0.00 0.00
10:55 am 10:55 Sunny 64 17.9 57 13.8 77 77 ENE 7 11 30.14 1020 10 16 0.00 0.00
11:15 am 11:15 Sunny 65 18.6 57 14 75 75 E 12 19 30.12 1020 10 16 0.00 0.00
11:35 am 11:35 Sunny 66 19 57 14.1 73 73 E 8 13 30.13 1020 10 16 0.00 0.00
11:55 am 11:55 Sunny 67 19.7 58 14.3 71 71 E 8 13 30.12 1020 10 16 0.00 0.00
12:15 pm 12:15 Sunny 68 20 58 14.4 70 70 ESE 6 9 30.12 1020 10 16 0.00 0.00
12:35 pm 12:35 Sunny 68 20.1 57 14.1 68 68 SE 5 7 30.12 1020 10 16 0.00 0.00
12:55 pm 12:55 Sunny 69 20.6 58 14.6 68 68 SE 3 6 30.11 1020 10 16 0.00 0.00
1:15 pm 13:15 Sunny 70 21.2 58 14.7 66 66 ESE 6 9 30.10 1019 10 16 0.00 0.00
1:35 pm 13:35 Sunny 71 21.8 59 14.9 65 65 E 6 9 30.09 1019 10 16 0.00 0.00
1:55 pm 13:55 Sunny 73 22.6 59 15 62 62 ESE 6 9 30.08 1018 10 16 0.00 0.00
2:15 pm 14:15 Sunny 73 22.8 59 14.8 61 61 ESE 3 6 30.07 1018 10 16 0.00 0.00
2:35 pm 14:35 Sunny 74 23.2 60 15.7 63 63 S 6 9 30.06 1018 10 16 0.00 0.00
2:55 pm 14:55 Sunny 74 23.4 60 15.3 60 60 E 3 6 30.05 1018 10 16 0.00 0.00
3:15 pm 15:15 Sunny 74 23.6 60 15.3 60 60 SSE 6 9 30.05 1017 10 16 0.00 0.00
3:35 pm 15:35 Sunny 75 24.1 60 15.6 59 59 Calm 30.03 1017 10 16 0.00 0.00
3:50 pm 15:50 Sunny 76 24.2 60 15.6 59 59 SE 5 7 30.03 1017 10 16 0.00 0.00
4:15 pm 16:15 Sunny 76 24.4 60 15.7 58 58 Calm 30.02 1017 10 16 0.00 0.00
4:35 pm 16:35 Sunny 76 24.5 62 16.4 61 61 NE 3 6 30.01 1016 10 16 0.00 0.00
4:55 pm 16:55 Sunny 76 24.7 61 16.1 59 59 ESE 5 7 30.01 1016 10 16 0.00 0.00
5:15 pm 17:15 Sunny 76 24.6 61 16.2 60 60 SE 5 7 30.00 1016 10 16 0.00 0.00
5:35 pm 17:35 Sunny 76 24.7 61 16.3 60 60 Calm 30.00 1016 10 16 0.00 0.00
5:50 pm 17:50 Sunny 77 24.8 61 15.9 58 58 E 3 6 30.00 1016 10 16 0.00 0.00
6:15 pm 18:15 Sunny 77 25.1 61 16.1 57 57 E 5 7 29.98 1015 10 16 0.00 0.00
6:35 pm 18:35 Sunny 77 24.9 62 16.4 59 59 Calm 29.98 1015 10 16 0.00 0.00
6:55 pm 18:55 Sunny 77 24.8 61 16.2 59 59 ENE 3 6 29.97 1015 10 16 0.00 0.00
7:15 pm 19:15 Sunny 76 24.5 62 16.5 61 61 E 5 7 29.97 1015 10 16 0.00 0.00
7:35 pm 19:35 Sunny 75 24 62 16.7 64 64 ESE 3 6 29.97 1015 10 16 0.00 0.00
7:55 pm 19:55 Sunny 74 23.1 64 17.5 71 71 ESE 3 6 29.99 1016 10 16 0.00 0.00
8:15 pm 20:15 Sunny 72 22.1 64 18 78 78 Calm 30.00 1016 10 16 0.00 0.00
8:35 pm 20:35 Sunny 72 22 64 17.6 76 76 Calm 30.00 1016 10 16 0.00 0.00
8:55 pm 20:55 Clear 69 20.7 64 17.6 82 82 SE 3 6 30.01 1016 10 16 0.00 0.00
9:15 pm 21:15 Clear 67 19.3 63 17.1 87 87 SSE 5 7 30.03 1017 7 11 0.00 0.00
9:35 pm 21:35 Clear 66 18.7 62 16.6 88 88 SSE 5 7 30.05 1018 10 16 0.00 0.00
9:55 pm 21:55 Clear 65 18.5 62 16.4 88 88 S 5 7 30.05 1018 7 11 0.00 0.00
10:15 pm 22:15 Clear 65 18.5 61 16.3 87 87 SSE 6 9 30.06 1018 10 16 0.00 0.00
10:35 pm 22:35 Clear 64 17.8 61 16.1 90 90 SE 7 11 30.07 1018 10 16 0.00 0.00
10:55 pm 22:55 Clear 63 17 60 15.5 91 91 Calm 30.08 1019 7 11 0.00 0.00
11:10 pm 23:10 Clear 62 16.6 60 15.3 92 92 Calm 30.08 1019 7 11 0.00 0.00
11:35 pm 23:35 Clear 64 17.5 60 15.5 88 88 SSW 5 7 30.09 1019 10 16 0.00 0.00
11:55 pm 23:55 Clear 62 16.6 59 15.2 91 91 SSW 5 7 30.10 1019 10 16 0.00 0.00

Powered by AerisWeather